Location: Unspecified
(0.0000°N, 0.0000°E)
Time: 20:53:40
(UTC+00:00)

TITAN 3C DEB (INTERSTAGE - Visible Passes

Search period start: 09 February 2026 00:00
Search period end: 19 February 2026 00:00
Orbit: 8191 x 111311 km, 18.7° (Epoch: 15 June)

Date Brightness Start Highest point End Pass type
(mag) Time Alt. Az. Time Alt. Az. Time Alt. Az.
10 Feb ? 09:51:05 10° E 15:31:13 86° N 21:10:30 10° W visible
12 Feb ? 09:48:58 10° E 15:28:52 86° N 21:08:38 10° W visible
14 Feb ? 09:46:46 10° E 15:26:32 87° N 21:06:59 10° W visible
16 Feb ? 09:44:28 10° E 15:24:16 87° N 21:05:35 10° W visible
18 Feb ? 09:42:08 10° E 15:22:05 88° N 21:04:28 10° W visible
